Previsão horária em Barnala

Hoje, 26 Julho, Segunda-feira

Tempo Temperatura Precipitação Vento Pressão Humidade
00:00 +35°C° 0 mm 3 m/s 728 mmHg 58%
01:00 +35°C° 0 mm 3 m/s 728 mmHg 60%
02:00 +34°C° 0 mm 3 m/s 728 mmHg 62%
03:00 +34°C° 0 mm 3 m/s 728 mmHg 63%
04:00 +34°C° 0 mm 3 m/s 728 mmHg 64%
05:00 +33°C° 0 mm 4 m/s 728 mmHg 65%
06:00 +34°C° 0 mm 4 m/s 728 mmHg 64%
07:00 +34°C° 0 mm 4 m/s 729 mmHg 64%
08:00 +34°C° 0 mm 4 m/s 729 mmHg 63%
09:00 +36°C° 0 mm 4 m/s 729 mmHg 59%
10:00 +37°C° 0 mm 4 m/s 729 mmHg 55%
11:00 +38°C° 0 mm 4 m/s 729 mmHg 50%
12:00 +38°C° 0 mm 4 m/s 728 mmHg 49%
13:00 +40°C° 0 mm 4 m/s 728 mmHg 48%
14:00 +40°C° 0 mm 4 m/s 727 mmHg 46%
15:00 +40°C° 0 mm 4 m/s 727 mmHg 49%
16:00 +38°C° 0 mm 4 m/s 727 mmHg 51%
17:00 +38°C° 0 mm 4 m/s 726 mmHg 53%
18:00 +36°C° 0.4 mm 4 m/s 727 mmHg 60%
19:00 +34°C° 0.4 mm 4 m/s 727 mmHg 67%
20:00 +31°C° 0.4 mm 3 m/s 727 mmHg 74%
21:00 +32°C° 0.1 mm 4 m/s 727 mmHg 74%
22:00 +32°C° 0.1 mm 4 m/s 727 mmHg 75%
23:00 +32°C° 0.1 mm 4 m/s 727 mmHg 75%

Amanhã, 27 Julho, Terça-feira

Tempo Temperatura Precipitação Vento Pressão Humidade
00:00 +32°C° 0 mm 4 m/s 727 mmHg 75%
01:00 +31°C° 0 mm 3 m/s 726 mmHg 76%
02:00 +31°C° 0 mm 3 m/s 726 mmHg 76%
03:00 +30°C° 0.6 mm 3 m/s 726 mmHg 79%
04:00 +30°C° 0.6 mm 3 m/s 726 mmHg 82%
05:00 +30°C° 0.6 mm 3 m/s 726 mmHg 84%
06:00 +29°C° 0.3 mm 3 m/s 726 mmHg 86%
07:00 +29°C° 0.3 mm 3 m/s 726 mmHg 87%
08:00 +29°C° 0.3 mm 4 m/s 727 mmHg 88%
09:00 +31°C° 0 mm 3 m/s 727 mmHg 80%
10:00 +33°C° 0 mm 3 m/s 727 mmHg 72%
11:00 +35°C° 0 mm 2 m/s 727 mmHg 64%
12:00 +36°C° 0 mm 3 m/s 726 mmHg 61%
13:00 +36°C° 0 mm 3 m/s 726 mmHg 58%
14:00 +37°C° 0 mm 3 m/s 726 mmHg 55%
15:00 +37°C° 0.4 mm 3 m/s 725 mmHg 57%
16:00 +36°C° 0.4 mm 3 m/s 725 mmHg 59%
17:00 +35°C° 0.4 mm 4 m/s 725 mmHg 62%
18:00 +34°C° 0.2 mm 3 m/s 725 mmHg 65%
19:00 +33°C° 0.2 mm 3 m/s 726 mmHg 69%
20:00 +31°C° 0.2 mm 3 m/s 726 mmHg 73%
21:00 +31°C° 0.2 mm 3 m/s 726 mmHg 75%
22:00 +30°C° 0.2 mm 3 m/s 726 mmHg 78%
23:00 +30°C° 0.2 mm 4 m/s 727 mmHg 81%

Depois de amanhã, 28 Julho, Quarta-feira

Tempo Temperatura Precipitação Vento Pressão Humidade
00:00 +30°C° 0.2 mm 4 m/s 726 mmHg 81%
01:00 +29°C° 0.2 mm 3 m/s 726 mmHg 81%
02:00 +29°C° 0.2 mm 3 m/s 726 mmHg 82%
03:00 +29°C° 1 mm 3 m/s 726 mmHg 84%
04:00 +29°C° 1 mm 2 m/s 726 mmHg 86%
05:00 +28°C° 1 mm 2 m/s 726 mmHg 89%
06:00 +29°C° 0.9 mm 2 m/s 726 mmHg 88%
07:00 +29°C° 0.9 mm 2 m/s 727 mmHg 88%
08:00 +29°C° 0.9 mm 2 m/s 727 mmHg 88%
09:00 +29°C° 0.8 mm 2 m/s 727 mmHg 89%
10:00 +29°C° 0.8 mm 2 m/s 728 mmHg 90%
11:00 +29°C° 0.8 mm 2 m/s 728 mmHg 91%
12:00 +29°C° 3.4 mm 2 m/s 728 mmHg 92%
13:00 +28°C° 3.4 mm 2 m/s 728 mmHg 92%
14:00 +28°C° 3.4 mm 2 m/s 727 mmHg 93%
15:00 +28°C° 2.2 mm 2 m/s 727 mmHg 92%
16:00 +28°C° 2.2 mm 2 m/s 727 mmHg 92%
17:00 +28°C° 2.2 mm 2 m/s 727 mmHg 91%
18:00 +28°C° 1.2 mm 2 m/s 727 mmHg 92%
19:00 +28°C° 1.2 mm 2 m/s 728 mmHg 93%
20:00 +28°C° 1.2 mm 2 m/s 728 mmHg 95%
21:00 +28°C° 0.1 mm 2 m/s 728 mmHg 94%
22:00 +28°C° 0.1 mm 2 m/s 728 mmHg 94%
23:00 +28°C° 0.1 mm 2 m/s 728 mmHg 94%

29 Julho, Quinta-feira

Tempo Temperatura Precipitação Vento Pressão Humidade
00:00 +28°C° 0 mm 2 m/s 728 mmHg 93%
01:00 +28°C° 0 mm 2 m/s 727 mmHg 92%
02:00 +28°C° 0 mm 2 m/s 727 mmHg 91%
03:00 +28°C° 0.7 mm 3 m/s 727 mmHg 91%
04:00 +28°C° 0.7 mm 3 m/s 727 mmHg 91%
05:00 +28°C° 0.7 mm 3 m/s 727 mmHg 90%
06:00 +28°C° 0.5 mm 3 m/s 728 mmHg 89%
07:00 +28°C° 0.5 mm 3 m/s 728 mmHg 88%
08:00 +29°C° 0.5 mm 3 m/s 728 mmHg 87%
09:00 +29°C° 0.9 mm 3 m/s 729 mmHg 87%
10:00 +29°C° 0.9 mm 4 m/s 729 mmHg 87%
11:00 +29°C° 0.9 mm 4 m/s 729 mmHg 87%
12:00 +29°C° 0.1 mm 4 m/s 729 mmHg 85%
13:00 +30°C° 0.1 mm 3 m/s 728 mmHg 84%
14:00 +30°C° 0.1 mm 3 m/s 728 mmHg 82%
15:00 +29°C° 0.1 mm 3 m/s 728 mmHg 85%
16:00 +29°C° 0.1 mm 3 m/s 728 mmHg 87%
17:00 +28°C° 0.1 mm 3 m/s 727 mmHg 90%
18:00 +28°C° 0 mm 2 m/s 728 mmHg 89%
19:00 +28°C° 0 mm 2 m/s 728 mmHg 88%
20:00 +28°C° 0 mm 2 m/s 728 mmHg 87%
21:00 +28°C° 0 mm 2 m/s 728 mmHg 87%
22:00 +28°C° 0 mm 2 m/s 728 mmHg 86%
23:00 +28°C° 0 mm 2 m/s 728 mmHg 86%

30 Julho, Sexta-feira

Tempo Temperatura Precipitação Vento Pressão Humidade
00:00 +28°C° 0.3 mm 2 m/s 728 mmHg 87%
01:00 +28°C° 0.3 mm 2 m/s 728 mmHg 88%
02:00 +28°C° 0.3 mm 2 m/s 728 mmHg 88%
03:00 +28°C° 2.7 mm 2 m/s 728 mmHg 90%
04:00 +28°C° 2.7 mm 2 m/s 728 mmHg 93%
05:00 +27°C° 2.7 mm 2 m/s 728 mmHg 95%
06:00 +28°C° 1.4 mm 2 m/s 728 mmHg 94%
07:00 +28°C° 1.4 mm 2 m/s 729 mmHg 94%
08:00 +28°C° 1.4 mm 2 m/s 729 mmHg 93%
09:00 +29°C° 0.1 mm 2 m/s 729 mmHg 89%
10:00 +30°C° 0.1 mm 2 m/s 729 mmHg 85%
11:00 +31°C° 0.1 mm 2 m/s 729 mmHg 81%
12:00 +31°C° 0.5 mm 2 m/s 729 mmHg 78%
13:00 +33°C° 0.5 mm 3 m/s 729 mmHg 75%
14:00 +34°C° 0.5 mm 3 m/s 728 mmHg 73%
15:00 +33°C° 0.4 mm 3 m/s 728 mmHg 74%
16:00 +32°C° 0.4 mm 2 m/s 728 mmHg 75%
17:00 +32°C° 0.4 mm 2 m/s 728 mmHg 76%
18:00 +31°C° 0.1 mm 2 m/s 728 mmHg 79%
19:00 +30°C° 0.1 mm 2 m/s 728 mmHg 82%
20:00 +29°C° 0.1 mm 2 m/s 729 mmHg 86%
21:00 +29°C° 0 mm 2 m/s 729 mmHg 86%
22:00 +29°C° 0 mm 2 m/s 729 mmHg 87%
23:00 +29°C° 0 mm 2 m/s 729 mmHg 87%

31 Julho, Sábado

Tempo Temperatura Precipitação Vento Pressão Humidade
00:00 +29°C° 0.1 mm 2 m/s 729 mmHg 88%
01:00 +29°C° 0.1 mm 2 m/s 728 mmHg 89%
02:00 +29°C° 0.1 mm 2 m/s 728 mmHg 89%
03:00 +29°C° 0.8 mm 2 m/s 728 mmHg 89%
04:00 +28°C° 0.8 mm 2 m/s 728 mmHg 90%
05:00 +28°C° 0.8 mm 2 m/s 728 mmHg 90%
06:00 +29°C° 0.9 mm 2 m/s 728 mmHg 86%
07:00 +30°C° 0.9 mm 2 m/s 729 mmHg 83%
08:00 +31°C° 0.9 mm 2 m/s 729 mmHg 79%
09:00 +32°C° 0.7 mm 2 m/s 729 mmHg 74%
10:00 +34°C° 0.7 mm 2 m/s 729 mmHg 70%
11:00 +35°C° 0.7 mm 2 m/s 729 mmHg 65%
12:00 +35°C° 1.7 mm 2 m/s 729 mmHg 66%
13:00 +34°C° 1.7 mm 1 m/s 728 mmHg 66%
14:00 +34°C° 1.7 mm 1 m/s 728 mmHg 67%
15:00 +32°C° 1.8 mm 1 m/s 728 mmHg 74%
16:00 +31°C° 1.8 mm 2 m/s 727 mmHg 81%
17:00 +29°C° 1.8 mm 2 m/s 727 mmHg 88%
18:00 +29°C° 1.7 mm 3 m/s 727 mmHg 89%
19:00 +29°C° 1.7 mm 3 m/s 728 mmHg 90%
20:00 +29°C° 1.7 mm 3 m/s 728 mmHg 91%
21:00 +29°C° 0.1 mm 3 m/s 728 mmHg 91%
22:00 +29°C° 0.1 mm 3 m/s 728 mmHg 91%
23:00 +29°C° 0.1 mm 2 m/s 728 mmHg 91%
Mostrar mais